When you browse on this site, cookies collect data to enhance your experience and personalize the content and advertising you see.
Visit our Privacy Policy to learn more. By continuing to use the site, you agree to this use of cookies and data.
  • In Latvia
  • List of Countries
  • For 7 days
  • Water Temperature
  • Weather Map
  • Weather Widgets
  • user-avatar
    Login

    Hourly Weather Pontypool

    Today, 21 September, Saturday

    Time Temperature Precipitation Wind Pressure Humidity
    00:00 +10°C° 0 mm 3 mps 746 mmHg 79%
    01:00 +10°C° 0 mm 3 mps 746 mmHg 80%
    02:00 +10°C° 0 mm 3 mps 745 mmHg 82%
    03:00 +9°C° 0 mm 3 mps 744 mmHg 83%
    04:00 +9°C° 0 mm 3 mps 744 mmHg 84%
    05:00 +9°C° 0 mm 3 mps 744 mmHg 85%
    06:00 +9°C° 0 mm 3 mps 743 mmHg 86%
    07:00 +11°C° 0 mm 3 mps 743 mmHg 82%
    08:00 +13°C° 0 mm 4 mps 743 mmHg 77%
    09:00 +14°C° 0 mm 4 mps 743 mmHg 73%
    10:00 +17°C° 0 mm 4 mps 743 mmHg 71%
    11:00 +19°C° 0 mm 4 mps 742 mmHg 69%
    12:00 +21°C° 0 mm 4 mps 742 mmHg 67%
    13:00 +21°C° 0 mm 5 mps 742 mmHg 67%
    14:00 +22°C° 0 mm 5 mps 741 mmHg 68%
    15:00 +22°C° 0 mm 6 mps 741 mmHg 68%
    16:00 +21°C° 0 mm 5 mps 740 mmHg 74%
    17:00 +20°C° 0 mm 5 mps 740 mmHg 79%
    18:00 +18°C° 0 mm 4 mps 740 mmHg 84%
    19:00 +18°C° 0.6 mm 3 mps 739 mmHg 86%
    20:00 +17°C° 0.6 mm 3 mps 739 mmHg 89%
    21:00 +16°C° 0.6 mm 3 mps 739 mmHg 91%
    22:00 +16°C° 0.1 mm 3 mps 739 mmHg 92%
    23:00 +16°C° 0.1 mm 2 mps 738 mmHg 92%

    Tomorrow, 22 September, Sunday

    Time Temperature Precipitation Wind Pressure Humidity
    00:00 +16°C° 0.1 mm 2 mps 738 mmHg 93%
    01:00 +16°C° 0 mm 2 mps 737 mmHg 94%
    02:00 +16°C° 0 mm 2 mps 737 mmHg 95%
    03:00 +16°C° 0 mm 2 mps 736 mmHg 96%
    04:00 +16°C° 0 mm 3 mps 736 mmHg 96%
    05:00 +16°C° 0 mm 3 mps 736 mmHg 97%
    06:00 +16°C° 0 mm 3 mps 736 mmHg 97%
    07:00 +15°C° 0.4 mm 4 mps 736 mmHg 96%
    08:00 +15°C° 0.4 mm 4 mps 737 mmHg 96%
    09:00 +15°C° 0.4 mm 4 mps 737 mmHg 95%
    10:00 +15°C° 0.5 mm 4 mps 737 mmHg 93%
    11:00 +15°C° 0.5 mm 4 mps 738 mmHg 91%
    12:00 +15°C° 0.5 mm 4 mps 738 mmHg 89%
    13:00 +17°C° 0.3 mm 4 mps 738 mmHg 86%
    14:00 +17°C° 0.3 mm 4 mps 738 mmHg 83%
    15:00 +17°C° 0.3 mm 4 mps 738 mmHg 81%
    16:00 +16°C° 0.6 mm 3 mps 738 mmHg 84%
    17:00 +16°C° 0.6 mm 3 mps 738 mmHg 87%
    18:00 +14°C° 0.6 mm 3 mps 738 mmHg 90%
    19:00 +14°C° 0.1 mm 2 mps 738 mmHg 91%
    20:00 +13°C° 0.1 mm 2 mps 739 mmHg 91%
    21:00 +13°C° 0.1 mm 2 mps 739 mmHg 92%
    22:00 +13°C° 0.2 mm 2 mps 739 mmHg 93%
    23:00 +12°C° 0.2 mm 2 mps 740 mmHg 94%

    Day after tomorrow, 23 September, Monday

    Time Temperature Precipitation Wind Pressure Humidity
    00:00 +12°C° 0.2 mm 2 mps 740 mmHg 95%
    01:00 +12°C° 0 mm 2 mps 740 mmHg 94%
    02:00 +11°C° 0 mm 3 mps 741 mmHg 94%
    03:00 +11°C° 0 mm 3 mps 741 mmHg 94%
    04:00 +10°C° 0 mm 3 mps 741 mmHg 94%
    05:00 +10°C° 0 mm 3 mps 741 mmHg 94%
    06:00 +10°C° 0 mm 3 mps 742 mmHg 94%
    07:00 +11°C° 0 mm 3 mps 742 mmHg 91%
    08:00 +13°C° 0 mm 4 mps 742 mmHg 87%
    09:00 +14°C° 0 mm 5 mps 742 mmHg 84%
    10:00 +15°C° 0 mm 5 mps 742 mmHg 80%
    11:00 +16°C° 0 mm 6 mps 742 mmHg 76%
    12:00 +16°C° 0 mm 7 mps 742 mmHg 73%
    13:00 +16°C° 0.6 mm 7 mps 741 mmHg 78%
    14:00 +15°C° 0.6 mm 7 mps 740 mmHg 84%
    15:00 +14°C° 0.6 mm 7 mps 740 mmHg 89%
    16:00 +14°C° 1.2 mm 7 mps 739 mmHg 91%
    17:00 +14°C° 1.2 mm 7 mps 739 mmHg 93%
    18:00 +14°C° 1.2 mm 6 mps 738 mmHg 96%
    19:00 +14°C° 0.4 mm 6 mps 738 mmHg 96%
    20:00 +15°C° 0.4 mm 5 mps 738 mmHg 96%
    21:00 +15°C° 0.4 mm 4 mps 738 mmHg 97%
    22:00 +15°C° 0.7 mm 4 mps 738 mmHg 97%
    23:00 +15°C° 0.7 mm 4 mps 737 mmHg 97%

    24 September, Tuesday

    Time Temperature Precipitation Wind Pressure Humidity
    00:00 +15°C° 0.7 mm 4 mps 737 mmHg 97%
    01:00 +15°C° 0.7 mm 4 mps 736 mmHg 97%
    02:00 +15°C° 0.7 mm 4 mps 735 mmHg 97%
    03:00 +14°C° 0.7 mm 3 mps 735 mmHg 97%
    04:00 +14°C° 1.9 mm 3 mps 734 mmHg 97%
    05:00 +14°C° 1.9 mm 3 mps 733 mmHg 97%
    06:00 +15°C° 1.9 mm 2 mps 733 mmHg 97%
    07:00 +14°C° 0.9 mm 4 mps 733 mmHg 95%
    08:00 +14°C° 0.9 mm 5 mps 733 mmHg 93%
    09:00 +14°C° 0.9 mm 6 mps 733 mmHg 92%
    10:00 +15°C° 0.2 mm 7 mps 733 mmHg 88%
    11:00 +15°C° 0.2 mm 7 mps 734 mmHg 83%
    12:00 +16°C° 0.2 mm 8 mps 734 mmHg 79%
    13:00 +15°C° 0.2 mm 8 mps 734 mmHg 78%
    14:00 +15°C° 0.2 mm 9 mps 734 mmHg 77%
    15:00 +15°C° 0.2 mm 9 mps 735 mmHg 77%
    16:00 +13°C° 0 mm 9 mps 735 mmHg 78%
    17:00 +12°C° 0 mm 8 mps 735 mmHg 80%
    18:00 +11°C° 0 mm 7 mps 735 mmHg 82%
    19:00 +11°C° 0 mm 7 mps 736 mmHg 84%
    20:00 +10°C° 0 mm 6 mps 736 mmHg 86%
    21:00 +10°C° 0 mm 6 mps 736 mmHg 88%
    22:00 +10°C° 0.2 mm 6 mps 736 mmHg 88%
    23:00 +11°C° 0.2 mm 6 mps 736 mmHg 89%

    25 September, Wednesday

    Time Temperature Precipitation Wind Pressure Humidity
    00:00 +11°C° 0.2 mm 6 mps 736 mmHg 89%
    01:00 +11°C° 0.2 mm 6 mps 736 mmHg 89%
    02:00 +11°C° 0.2 mm 6 mps 736 mmHg 88%
    03:00 +13°C° 0.2 mm 6 mps 736 mmHg 88%
    04:00 +11°C° 0.1 mm 6 mps 736 mmHg 90%
    05:00 +12°C° 0.1 mm 5 mps 736 mmHg 92%
    06:00 +12°C° 0.1 mm 4 mps 736 mmHg 94%
    07:00 +13°C° 0.6 mm 4 mps 736 mmHg 94%
    08:00 +13°C° 0.6 mm 4 mps 736 mmHg 94%
    09:00 +14°C° 0.6 mm 5 mps 736 mmHg 95%
    10:00 +14°C° 0.8 mm 5 mps 736 mmHg 93%
    11:00 +15°C° 0.8 mm 6 mps 736 mmHg 92%
    12:00 +15°C° 0.8 mm 7 mps 735 mmHg 91%
    13:00 +15°C° 1 mm 7 mps 735 mmHg 92%
    14:00 +15°C° 1 mm 7 mps 735 mmHg 93%
    15:00 +15°C° 1 mm 7 mps 734 mmHg 95%
    16:00 +15°C° 0.3 mm 7 mps 734 mmHg 94%
    17:00 +15°C° 0.3 mm 6 mps 734 mmHg 94%
    18:00 +14°C° 0.3 mm 6 mps 734 mmHg 93%
    19:00 +14°C° 0.2 mm 6 mps 734 mmHg 94%
    20:00 +15°C° 0.2 mm 6 mps 734 mmHg 95%
    21:00 +15°C° 0.2 mm 5 mps 734 mmHg 95%
    22:00 +15°C° 1.2 mm 6 mps 733 mmHg 96%
    23:00 +15°C° 1.2 mm 7 mps 732 mmHg 96%

    26 September, Thursday

    Time Temperature Precipitation Wind Pressure Humidity
    00:00 +15°C° 1.2 mm 7 mps 731 mmHg 96%
    01:00 +15°C° 2.4 mm 8 mps 731 mmHg 96%
    02:00 +15°C° 2.4 mm 8 mps 730 mmHg 96%
    03:00 +15°C° 2.4 mm 8 mps 729 mmHg 96%
    04:00 +14°C° 0.5 mm 7 mps 730 mmHg 95%
    05:00 +14°C° 0.5 mm 6 mps 730 mmHg 94%
    06:00 +13°C° 0.5 mm 4 mps 730 mmHg 93%
    07:00 +13°C° 0.2 mm 5 mps 730 mmHg 89%
    08:00 +12°C° 0.2 mm 7 mps 730 mmHg 85%
    09:00 +13°C° 0.2 mm 8 mps 731 mmHg 81%
    10:00 +13°C° 0.4 mm 8 mps 731 mmHg 80%
    11:00 +13°C° 0.4 mm 9 mps 731 mmHg 78%
    12:00 +13°C° 0.4 mm 10 mps 731 mmHg 77%
    13:00 +13°C° 0.3 mm 10 mps 731 mmHg 77%
    14:00 +13°C° 0.3 mm 10 mps 731 mmHg 76%
    15:00 +13°C° 0.3 mm 10 mps 731 mmHg 76%
    16:00 +13°C° 0.3 mm 9 mps 731 mmHg 79%
    17:00 +12°C° 0.3 mm 9 mps 731 mmHg 82%
    18:00 +12°C° 0.3 mm 9 mps 730 mmHg 85%
    19:00 +12°C° 0.5 mm 9 mps 730 mmHg 85%
    20:00 +12°C° 0.5 mm 9 mps 730 mmHg 86%
    21:00 +11°C° 0.5 mm 9 mps 730 mmHg 87%
    22:00 +11°C° 0.4 mm 9 mps 731 mmHg 87%
    23:00 +11°C° 0.4 mm 8 mps 731 mmHg 88%
    Show more